Back to catalog

SL-12 DEB

LostHEO
NORAD 29321·DEBRIS·🇷🇺 Russia

Launched May 31, 1989 from Baikonur Cosmodrome

Loading…

Next Passes (next 24 hours)

TLE

StaleSource: Space-Track

Epoch: Jan 3, 2007, 20:11 UTC

1 29321U 89039AC  07003.84133623  .00315665  00000-0  24267+0 0  9992
2 29321 065.7213 214.6906 5607290 060.0796 343.9865 04.53483295  6993

Track SL-12 DEB in real time with AllMySat

Download on the App Store